Location: Presov
(49.0000°N, 21.2500°E)
Time: 00:54:14
(UTC+02:00)

Transit 2A Rocket - Pass Details

Date: 21 April 2021
Orbit: 594 x 908 km, 66.7° (Epoch: 06 May)

Event Time Altitude Azimuth Distance (km) Brightness Sun altitude
Rises 15:29:07 0° 203° (SSW) 2,946 8.7 38.3°
Reaches altitude 10° 15:31:28 10° 200° (SSW) 2,004 7.9 38.0°
Maximum altitude 15:35:51 59° 121° (ESE) 708 5.2 37.4°
Drops below altitude 10° 15:40:06 10° 42° (NE) 1,940 6.7 36.8°
Sets 15:42:21 0° 39° (NE) 2,842 7.5 36.4°
